User: anonymous   Login
Location: Unspecified
(35.6961°N, 0.0000°E)
Time: 01:43:29
(UTC+00:00)
Language:

S-56A Canister/Altair - Orbit

View from above orbital plane
View from above orbital plane
View from above satellite
View from above satellite

Ground track
Ground track

The orbit data is extracted from the following two-line orbital elements,

1    82U 61004B   20294.46261369 -.00000094 +00000-0 -40113-4 0  9993
2    82 038.8593 095.4985 1175269 326.9039 026.3142 12.26057092823152
Epoch (UTC): 20 October 2020 11:06:09
Eccentricity: 0.1175269
inclination: 38.8593°
perigee height: 632 km
apogee height: 2500 km
right ascension of ascending node: 95.4985°
argument of perigee: 326.9039°
revolutions per day: 12.26057092
mean anomaly at epoch: 26.3142°
orbit number at epoch: 82315

The dashed part of the orbit path shows where the satellite is in the earth's shadow,  

DLR